Location: Baia Mare
(47.6567°N, 23.5850°E)
Time: 09:28:54
(UTC+03:00)

ISS - Pass Details

Date: 08 October 2018
Orbit: 403 x 408 km, 51.6° (Epoch: 21 October)

Event Time Altitude Azimuth Distance (km) Brightness Sun altitude
Rises 20:27:00 0° 292° (WNW) 2,340 1.6 -16.9°
Reaches altitude 10° 20:29:08 10° 286° (WNW) 1,475 0.3 -17.2°
Maximum altitude 20:32:19 46° 212° (SSW) 562 -3.0 -17.7°
Enters shadow 20:33:14 34° 167° (SSE) 687 -2.9 -17.9°
